• Em Portugal
  • Lista de países
  • Para 7 dias
  • Temperatura da água
  • Mapas de satélite
  • Mapa do tempo
  • Widgets de tempo
  • user-avatar
    Iniciar Sessão

    Previsão horária em Sevan

    Hoje, 20 Janeiro, Sábado

    Tempo Temperatura Precipitação Vento Pressão Humidade
    00:00 -1°C° 0 mm 2 m/s 634 mmHg 81%
    01:00 -1°C° 0,1 mm 2 m/s 635 mmHg 82%
    02:00 -1°C° 0,1 mm 2 m/s 635 mmHg 84%
    03:00 0°C° 0 mm 3 m/s 635 mmHg 85%
    04:00 0°C° 0,7 mm 3 m/s 636 mmHg 86%
    05:00 +1°C° 0,7 mm 2 m/s 636 mmHg 87%
    06:00 -1°C° 0,7 mm 2 m/s 637 mmHg 87%
    07:00 +1°C° 0,4 mm 2 m/s 637 mmHg 86%
    08:00 +1°C° 0,4 mm 2 m/s 638 mmHg 85%
    09:00 +1°C° 0 mm 2 m/s 638 mmHg 84%
    10:00 +2°C° 0,1 mm 2 m/s 638 mmHg 82%
    11:00 +2°C° 0,1 mm 2 m/s 639 mmHg 79%
    12:00 +3°C° 0,1 mm 2 m/s 639 mmHg 77%
    13:00 +4°C° 0 mm 1 m/s 639 mmHg 76%
    14:00 +4°C° 0 mm 1 m/s 639 mmHg 75%
    15:00 +4°C° 0 mm 1 m/s 640 mmHg 74%
    16:00 +3°C° 0 mm 1 m/s 640 mmHg 76%
    17:00 +1°C° 0 mm 1 m/s 640 mmHg 77%
    18:00 0°C° 0 mm 1 m/s 640 mmHg 78%
    19:00 -1°C° 0 mm 1 m/s 640 mmHg 78%
    20:00 -1°C° 0 mm 1 m/s 640 mmHg 78%
    21:00 -1°C° 0 mm 1 m/s 641 mmHg 77%
    22:00 -2°C° 0 mm 1 m/s 641 mmHg 78%
    23:00 -2°C° 0 mm 1 m/s 641 mmHg 78%

    Amanhã, 21 Janeiro, Domingo

    Tempo Temperatura Precipitação Vento Pressão Humidade
    00:00 -2°C° 0 mm 1 m/s 641 mmHg 78%
    01:00 -4°C° 0 mm 2 m/s 641 mmHg 78%
    02:00 -4°C° 0 mm 2 m/s 641 mmHg 78%
    03:00 -4°C° 0 mm 2 m/s 641 mmHg 79%
    04:00 -4°C° 0 mm 2 m/s 641 mmHg 78%
    05:00 -4°C° 0 mm 2 m/s 641 mmHg 78%
    06:00 -4°C° 0 mm 2 m/s 641 mmHg 77%
    07:00 -4°C° 0 mm 2 m/s 641 mmHg 76%
    08:00 -3°C° 0 mm 2 m/s 642 mmHg 75%
    09:00 -2°C° 0 mm 2 m/s 642 mmHg 73%
    10:00 -1°C° 0 mm 2 m/s 642 mmHg 71%
    11:00 0°C° 0 mm 3 m/s 642 mmHg 69%
    12:00 +1°C° 0 mm 3 m/s 642 mmHg 67%
    13:00 +1°C° 0 mm 3 m/s 641 mmHg 66%
    14:00 +2°C° 0 mm 3 m/s 641 mmHg 66%
    15:00 +3°C° 0 mm 2 m/s 641 mmHg 65%
    16:00 +1°C° 0 mm 2 m/s 641 mmHg 65%
    17:00 -1°C° 0 mm 2 m/s 641 mmHg 65%
    18:00 -3°C° 0 mm 2 m/s 641 mmHg 65%
    19:00 -3°C° 0 mm 2 m/s 641 mmHg 65%
    20:00 -3°C° 0 mm 2 m/s 641 mmHg 64%
    21:00 -3°C° 0 mm 2 m/s 641 mmHg 63%
    22:00 -3°C° 0 mm 2 m/s 641 mmHg 63%
    23:00 -3°C° 0 mm 2 m/s 640 mmHg 63%

    Depois de amanhã, 22 Janeiro, Segunda-feira

    Tempo Temperatura Precipitação Vento Pressão Humidade
    00:00 -3°C° 0 mm 2 m/s 640 mmHg 63%
    01:00 -3°C° 0 mm 2 m/s 640 mmHg 62%
    02:00 -3°C° 0 mm 2 m/s 640 mmHg 61%
    03:00 -3°C° 0 mm 2 m/s 640 mmHg 60%
    04:00 -3°C° 0 mm 2 m/s 639 mmHg 60%
    05:00 -3°C° 0 mm 2 m/s 639 mmHg 60%
    06:00 -3°C° 0 mm 2 m/s 638 mmHg 59%
    07:00 -2°C° 0 mm 2 m/s 638 mmHg 59%
    08:00 -1°C° 0 mm 2 m/s 638 mmHg 59%
    09:00 -1°C° 0 mm 2 m/s 639 mmHg 59%
    10:00 +1°C° 0 mm 2 m/s 638 mmHg 59%
    11:00 +3°C° 0 mm 2 m/s 638 mmHg 58%
    12:00 +4°C° 0 mm 2 m/s 638 mmHg 57%
    13:00 +4°C° 0 mm 2 m/s 637 mmHg 58%
    14:00 +4°C° 0 mm 2 m/s 637 mmHg 58%
    15:00 +4°C° 0 mm 2 m/s 636 mmHg 59%
    16:00 +2°C° 0 mm 2 m/s 636 mmHg 57%
    17:00 +1°C° 0 mm 2 m/s 636 mmHg 55%
    18:00 -2°C° 0 mm 2 m/s 635 mmHg 52%
    19:00 -2°C° 0 mm 2 m/s 635 mmHg 52%
    20:00 -3°C° 0 mm 2 m/s 635 mmHg 51%
    21:00 -3°C° 0 mm 2 m/s 635 mmHg 51%
    22:00 -3°C° 0 mm 2 m/s 635 mmHg 52%
    23:00 -3°C° 0 mm 2 m/s 635 mmHg 53%

    23 Janeiro, Terça-feira

    Tempo Temperatura Precipitação Vento Pressão Humidade
    00:00 -4°C° 0 mm 2 m/s 635 mmHg 55%
    01:00 -4°C° 0 mm 2 m/s 635 mmHg 56%
    02:00 -4°C° 0 mm 2 m/s 635 mmHg 57%
    03:00 -4°C° 0 mm 2 m/s 635 mmHg 57%
    04:00 -4°C° 0 mm 2 m/s 634 mmHg 58%
    05:00 -5°C° 0 mm 2 m/s 634 mmHg 58%
    06:00 -5°C° 0 mm 2 m/s 634 mmHg 59%
    07:00 -4°C° 0 mm 2 m/s 634 mmHg 60%
    08:00 -3°C° 0 mm 2 m/s 635 mmHg 60%
    09:00 -3°C° 0 mm 2 m/s 635 mmHg 61%
    10:00 -1°C° 0 mm 2 m/s 635 mmHg 60%
    11:00 0°C° 0 mm 3 m/s 635 mmHg 59%
    12:00 +1°C° 0 mm 3 m/s 634 mmHg 58%
    13:00 +1°C° 0 mm 3 m/s 634 mmHg 58%
    14:00 +3°C° 0 mm 2 m/s 634 mmHg 59%
    15:00 +3°C° 0 mm 2 m/s 633 mmHg 60%
    16:00 +2°C° 0 mm 2 m/s 633 mmHg 59%
    17:00 -1°C° 0 mm 2 m/s 633 mmHg 59%
    18:00 -2°C° 0 mm 2 m/s 633 mmHg 59%
    19:00 -2°C° 0,1 mm 2 m/s 633 mmHg 61%
    20:00 -1°C° 0,1 mm 2 m/s 633 mmHg 63%
    21:00 +1°C° 0,1 mm 1 m/s 634 mmHg 65%
    22:00 +1°C° 0,1 mm 1 m/s 634 mmHg 67%
    23:00 +1°C° 0,1 mm 1 m/s 633 mmHg 68%

    24 Janeiro, Quarta-feira

    Tempo Temperatura Precipitação Vento Pressão Humidade
    00:00 +1°C° 0,1 mm 1 m/s 633 mmHg 69%
    01:00 0°C° 0,1 mm 1 m/s 633 mmHg 70%
    02:00 0°C° 0,1 mm 1 m/s 633 mmHg 71%
    03:00 0°C° 0,1 mm 1 m/s 633 mmHg 71%
    04:00 0°C° 0,2 mm 1 m/s 634 mmHg 74%
    05:00 0°C° 0,2 mm 1 m/s 634 mmHg 76%
    06:00 0°C° 0,2 mm 1 m/s 634 mmHg 78%
    07:00 0°C° 0,2 mm 1 m/s 635 mmHg 79%
    08:00 0°C° 0,2 mm 1 m/s 635 mmHg 79%
    09:00 0°C° 0,2 mm 1 m/s 636 mmHg 80%
    10:00 +1°C° 0,1 mm 1 m/s 636 mmHg 78%
    11:00 +2°C° 0,1 mm 1 m/s 636 mmHg 76%
    12:00 +2°C° 0,1 mm 1 m/s 636 mmHg 75%
    13:00 +2°C° 0,1 mm 1 m/s 636 mmHg 75%
    14:00 +2°C° 0,1 mm 1 m/s 636 mmHg 75%
    15:00 +2°C° 0,1 mm 1 m/s 636 mmHg 75%
    16:00 +1°C° 0,1 mm 1 m/s 637 mmHg 76%
    17:00 0°C° 0,1 mm 1 m/s 637 mmHg 77%
    18:00 -1°C° 0,1 mm 1 m/s 637 mmHg 79%
    19:00 -1°C° 0 mm 1 m/s 637 mmHg 78%
    20:00 -2°C° 0 mm 1 m/s 638 mmHg 78%
    21:00 -2°C° 0 mm 1 m/s 638 mmHg 77%
    22:00 -2°C° 0 mm 1 m/s 638 mmHg 77%
    23:00 -2°C° 0 mm 1 m/s 638 mmHg 76%

    25 Janeiro, Quinta-feira

    Tempo Temperatura Precipitação Vento Pressão Humidade
    00:00 -3°C° 0 mm 1 m/s 638 mmHg 75%
    01:00 -3°C° 0,1 mm 1 m/s 639 mmHg 75%
    02:00 -3°C° 0,1 mm 1 m/s 639 mmHg 75%
    03:00 -3°C° 0,1 mm 1 m/s 639 mmHg 75%
    04:00 -3°C° 0,1 mm 1 m/s 639 mmHg 75%
    05:00 -3°C° 0,1 mm 1 m/s 640 mmHg 75%
    06:00 -4°C° 0,1 mm 1 m/s 640 mmHg 76%
    07:00 -3°C° 0 mm 1 m/s 640 mmHg 75%
    08:00 -2°C° 0 mm 1 m/s 641 mmHg 74%
    09:00 -1°C° 0 mm 1 m/s 641 mmHg 73%
    10:00 0°C° 0 mm 1 m/s 641 mmHg 71%
    11:00 0°C° 0 mm 1 m/s 641 mmHg 69%
    12:00 +1°C° 0 mm 1 m/s 641 mmHg 68%
    13:00 +2°C° 0 mm 1 m/s 641 mmHg 68%
    14:00 +2°C° 0 mm 1 m/s 641 mmHg 69%
    15:00 +2°C° 0 mm 1 m/s 641 mmHg 69%
    16:00 +1°C° 0 mm 1 m/s 641 mmHg 71%
    17:00 0°C° 0 mm 1 m/s 641 mmHg 73%
    18:00 -2°C° 0 mm 1 m/s 641 mmHg 76%
    19:00 -2°C° 0 mm 1 m/s 641 mmHg 76%
    20:00 -2°C° 0 mm 1 m/s 641 mmHg 77%
    21:00 -2°C° 0 mm 1 m/s 642 mmHg 78%
    22:00 -3°C° 0 mm 1 m/s 642 mmHg 78%
    23:00 -3°C° 0 mm 1 m/s 642 mmHg 78%
    Mostrar mais